Regional Weather Roundup
Issued by NWS Wakefield, VA

Home | Current Version | Previous Version | Graphics & Text | Print | Product List | Glossary On
Versions: 1 2 3 4 5 6 7 8 9 10 11 12 13 14 15 16 17 18 19 20 21 22 23 24 25 26 27 28 29 30 31 32 33 34 35 36 37 38 39 40 41 42 43 44 45 46 47 48 49 50
267
ASUS41 KAKQ 112014
RWRAKQ

REGIONAL WEATHER ROUNDUP
NATIONAL WEATHER SERVICE WAKEFIELD VA
300 PM EST THU FEB 11 2016

Note: "fair" indicates few or no clouds below 12,000 feet with no
significant weather and/or obstructions to visibility. * = Denotes
station may not report precipitation (e.g., rain,snow,etc.),
thunder or fog.

VAZ042-051-052>054-056-112100-
NORTHERN VIRGINIA

CITY           SKY/WX    TMP DP  RH WIND       PRES   REMARKS
WASH NATIONAL  FAIR      30   2  30 W18G28    30.14R WCI  18
DULLES         FAIR      27   1  32 W20G29    30.13R WCI  13
FORT BELVOIR   FAIR      29  -1  27 NW22G30   30.13R WCI  16
QUANTICO       FAIR      33   1  25 NW15G30   30.15R WCI  23
FREDERICKSBRG* FAIR      32   2  27 W10G26    30.12S WCI  24
STAFFORD*      FAIR      32  -2  23 W16G22    30.17R WCI  21
WARRENTON      FAIR      32   7  34 NW16G24   30.12R WCI  21
CULPEPER*      FAIR      29  -1  26 NW12      30.14R WCI  20
MANASSAS*      NOT AVBL
LEESBURG*      FAIR      28   9  43 W21G29    30.14R WCI  15
WINCHESTER     PTSUNNY   27   1  33 W21G30    30.12R WCI  13
FRONT ROYAL*   MOCLDY    27   1  33 W8G21     30.12R
LURAY*         FAIR      27   1  33 NW10G16   30.11R WCI  17
$$

VAZ048-049-060>072-079>083-112100-
CENTRAL AND SOUTH CENTRAL VIRGINIA

CITY           SKY/WX    TMP DP  RH WIND       PRES   REMARKS
RICHMOND       FAIR      33   1  25 W13       30.13S WCI  24
CHESTERFIELD*  FAIR      36   1  23 NW16G22   30.14S
PETERSBURG*    FAIR      36 -10  13 W13       30.14R
HANOVER        FAIR      32   1  26 W10G22    30.14R WCI  24
TAPPAHANNOCK*  FAIR      33   2  26 W15G24    30.12S WCI  23
QUINTON*       FAIR      33   2  27 NW17      30.13R WCI  22
CHARLOTTSVILLE FAIR      30  -3  24 W8G17     30.11R
GORDONSVILLE*  FAIR      31  -2  24 W7G17     30.12R
ORANGE*        FAIR      32   1  27 W7G16     30.13R
LOUISA*        FAIR      34   1  25 NW13      30.10R WCI  25
BUMPASS*       FAIR      32  -1  24 W7G17     30.11S
FARMVILLE*     FAIR      34  -5  18 W7G18     30.12S
CREWE*         FAIR      34   2  26 W13G20    30.13R WCI  25
FORT PICKETT*  NOT AVBL
CHASE CITY*    FAIR      35  -2  21 W7        30.13F
CLARKSVILLE*   FAIR      36   3  25 NW10      30.14F
SOUTH HILL*    FAIR      35   3  26 SW7G18    30.19S
LAWRENCEVILLE* FAIR      35   1  24 W8G20     30.13S
EMPORIA*       FAIR      34   3  27 W10G21    30.16R
$$

VAZ088>098-112100-
SOUTHEAST VIRGINIA

CITY           SKY/WX    TMP DP  RH WIND       PRES   REMARKS
NORFOLK        FAIR      34   3  27 W9        30.13R
VIRGINIA BEACH FAIR      40   4  22 W15G23    30.12R
NORFOLK NAVAL  FAIR      35   5  28 W14       30.14R
WEST POINT*    FAIR      33   1  25 W10G21    30.15R WCI  25
SALUDA*        FAIR      32   3  29 NW10G17   30.12R WCI  24
NEWPORT NEWS   FAIR      33   5  30 W16G29    30.13R WCI  23
LANGLEY AFB    SUNNY     34   6  30 W15G22    30.12R WCI  24
FORT EUSTIS    FAIR      34   6  32 NW16G23   30.11S WCI  23
WILLIAMSBURG*  FAIR      37   7  28 NW15G26   30.14R
HR EXEC AP*    FAIR      36   7  30 NW8G24    30.15R
FRANKLIN*      FAIR      35   4  26 NW15G26   30.15R
US460-WAKEFLD  FAIR      35   1  23 NW10G21   30.14R
$$

VAZ020-022-025-037-045-112100-
WEST CENTRAL AND SOUTHWEST VIRGINIA

CITY           SKY/WX    TMP DP  RH WIND       PRES   REMARKS
STAUNTON*      FAIR      31   1  28 NW13G18   30.11S WCI  21
WAYNESBORO*    FAIR      26  -6  24 W12G20    30.07R WCI  16
HOT SPRINGS VA FAIR      15   1  53 W17G23    29.89S WCI  -1
LYNCHBURG      FAIR      30  -1  26 W12G21    30.13S WCI  20
DANVILLE       FAIR      38   2  22 SW7G17    30.14F
SOUTH BOSTON*  FAIR      36  -3  18 W8G21     30.15S
MARTINSVILLE   FAIR      36  -1  20 NW9       30.13F
ROANOKE        FAIR      31   1  28 NW13      30.13F WCI  21
BLACKSBURG     FAIR      28   7  42 W12G17    30.09S WCI  18
DUBLIN*        FAIR      29   3  33 W12G17    30.08F WCI  19
MARION*        FAIR      27   3  35 W15G23    30.08S WCI  16
HILLSVILLE*    FAIR      26   2  36 NW17G25   30.01F WCI  13
RICHLANDS*     FAIR      25   1  36 W13       30.07S WCI  13
WISE*          FAIR      28   3  34 NW5       30.09S
ABINGDON*      PTSUNNY   33  12  42 W10       30.10S WCI  25
$$

MDZ021>025-VAZ099-100-112100-
SOUTHERN MARYLAND AND THE DELMARVA PENINSULA

CITY           SKY/WX    TMP DP  RH WIND       PRES   REMARKS
PATUXENT RIVER MOSUNNY   31   2  29 NW18G26   30.10S WCI  19
BAY BRIDGE APT   N/A     28   3  34 W18G25    30.11R WCI  16
LEONARDTOWN    MOSUNNY   32   1  27 W14G20    30.12R WCI  22
DOVER          MOSUNNY   27   6  40 W21G30    30.05R WCI  13
GEORGETOWN     MOSUNNY   26   2  35 W16G25    30.08R WCI  14
EASTON         MOSUNNY   28   5  37 NW20G31   30.13R WCI  15
CAMBRIDGE      SUNNY     30   5  34 NW15G28   30.10R WCI  19
SALISBURY      MOSUNNY   29   4  34 W15G31    30.08R WCI  18
OCEAN CITY     SUNNY     29   3  33 NW18G30   30.07R WCI  16
WALLOPS ISLAND FAIR      31   7  36 W16G24    30.10R WCI  20
ACCOMACK*      FAIR      32   5  32 NW16G22   30.11R WCI  21
$$

NCZ012>017-030>032-112100-
NORTH CENTRAL AND EASTERN NORTH CAROLINA

CITY           SKY/WX    TMP DP  RH WIND       PRES   REMARKS
ROANOKE RAPIDS FAIR      37   9  30 NW9G17    30.15S
RALEIGH        MOSUNNY   39   5  24 VRB6G20   30.16S
ELIZABETH CITY SUNNY     36   8  31 W16G24    30.14R
AHOSKIE*       SUNNY     35   5  28 NW8       30.15S
EDENTON*       SUNNY     38   6  26 NW9G17    30.15R
CURRITUCK*     SUNNY    N/A N/A N/A W12G21    30.14R
KILL DEVIL HLS SUNNY     37   8  31 W10G18    30.12S
MANTEO         SUNNY     35  10  35 NW13G20   30.14S
CAPE HATTERAS  SUNNY     38  13  35 W13G20    30.15R
TARBORO*       FAIR      40   7  25 W12G22    30.17S
GOLDSBORO      SUNNY     43   5  21 W12       30.13F
WASHINGTON     SUNNY     38   7  28 NW13G22   30.16R
GREENVILLE     SUNNY     39   7  26 W12G18    30.17S
NEW BERN       SUNNY     41   9  26 W12G20    30.17R
WILMINGTON     SUNNY     46  16  30 W9        30.16F
$$

VAZ048-112100-
ELSEWHERE

CITY           SKY/WX    TMP DP  RH WIND       PRES   REMARKS
HARRISBURG PA  PTSUNNY   24   7  48 W25G35    30.06R WCI   8
BALTIMORE      MOSUNNY   27   1  32 NW25G33   30.10R WCI  12
ANNAPOLIS      PTSUNNY   28   4  35 W17G25    30.11R WCI  16
ANDREWS AFB    FAIR      27   1  31 NW21G28   30.10R WCI  14
PHILADELPHIA   PTSUNNY   26  -1  31 W21G36    30.05R WCI  12
HENDERSON NC   SUNNY     37  -2  19 W9G17     30.14S
GREENSBORO     MOSUNNY   38   8  29 NW13G21   30.12F
ROCKY MOUNT    SUNNY     39   7  26 NW14G21   30.16S
$$

VAZ100-112100-
MARINE

STATION/POSITION TIME  TEMP    WIND        PRES    WAVE   SWELL
                       AIR SEA DIR/SP/G            HT/PER HT/PER
                 (UTC) (F)     (DEG/KT/KT) (MB)    (FT/S) (FT/S)
BRANDYWINE LGT   1900   25     320/ 22/ 30 1017.5R
CAPE MAY NJ      1900   26 38  290/ 21/ 30 1017.1S
LEWES DE         1900   27 38  300/ 24/ 32 1017.7F
15NM E FENWICK I 1950   28 43              1017.4R   5/ 6
OCEAN-CITY-INLET 1900   27 41  300/ 16/ 21 1017.1F
WACHAPREAGUE VA  1900   31 40  290/  5/ 10 1019.3S
THOMAS POINT MD  2000   26     290/ 23       N/A
GOOSES REEF MD   2000   29 38  310/ 19/ 25 1020.3R   3/ 3
COVE POINT MD    1900   26     340/ 21/ 24 1019.7F
SOLOMONS ISLAND  1900   29 40  280/ 12/ 17   N/A
BISHOPS HEAD MD  1900   28 34  290/ 19/ 24 1018.4F
PINEY POINT MD   1900          330/ 20/ 23   N/A
POTOMAC MD       2000   30 39  310/ 16/ 19 1018.8R   2/ 3
CAMBRIDGE MD     1900   27 38  290/ 20/ 26 1018.6S
LEWISETTA VA     1900   28 39  310/  8/ 10 1019.3F
RAPPAHANNOCK LGT 1900          280/ 18/ 21 1019.6F
STINGRAY PT      2000   31 41  300/ 14/ 17 1019.8R   1/ 2
YORK RVR RNG VA  1900   30     320/ 16/ 20 1019.1F
YORKTOWN VA      1900   30 42  320/ 16/ 21 1019.5F
JAMESTOWN VA     2000   32 42  300/ 14/ 19   N/A     1/ 3
DOMINION TERM VA 1900   32     300/ 14/ 17 1019.8F
KIPTOPEKE VA     1900      40  310/ 15/ 21   N/A
CHES BAY BRIDGE  1900   30 42  280/ 15/ 19 1019.6F
CAPE HENRY VA    1900   31     280/ 14/ 19   N/A
CHESAPEAKE LGHT  1900   31     310/ 22/ 25 1020.5S
WILLOUBY STN VA  1900   30     290/ 14/ 17 1020.7F
CAPE HENRY BUOY  1928      43                N/A     4/ 4   2/12
1ST LANDING BUOY 2000      41                N/A     2/ 3
CAPE CHARLES BUO 1926      43                N/A     3/ 4   2/12
OFFSHORE WE BUOY 1921      46                N/A     4/ 5   2/11
64NM E OF VA BCH 1950   32 48  290/ 19/ 25 1019.3R   7/ 6   2/11
DUCK PIER NC     1900   32     280/ 14/ 18 1019.5F
44100 DUCK FRF   1924      46                N/A     3/ 5   2/12
44056 DUCK FRF   1911      44                N/A     2/12   2/12
OREGON INLET NC  1900   34 41  290/ 12/ 19 1020.3S
HATTERAS NC      1900   35 44  280/ 21/ 24 1020.0F
DIAMOND SHLS NC  1950   38 58  300/ 19/ 23 1021.C1F1C2F2C3F3C4F4C5F5C6F6C7F7C8M1C9!



USA.gov is the U.S. government's official web portal to all federal, state and local government web resources and services.